Location: Jackson
(42.2460°N, 84.4010°W)
Time: 23:01:21
(UTC-04:00)

Vanguard 2 Rocket - Pass Details

Date: 18 February 2026
Orbit: 553 x 3286 km, 32.9° (Epoch: 16 March)

Event Time Altitude Azimuth Distance (km) Brightness Sun altitude
Rises 19:27:23 0° 273° (W) 5,363 12.8 -14.2°
Reaches altitude 10° 19:33:53 10° 250° (WSW) 3,649 11.2 -15.4°
Maximum altitude 19:37:23 13° 227° (SW) 3,033 10.2 -16.1°
Drops below altitude 10° 19:40:20 10° 202° (SSW) 2,908 9.8 -16.6°
Sets 19:44:17 0° 173° (S) 3,420 9.8 -17.3°
